User: anonymous
Location: Caltech
(34.1382°N, 118.1253°W)
Time: 13:01:01
(UTC-07:00)
Language:

Iridium 70 - Orbit

View from above orbital plane
View from above orbital plane
View from above satellite
View from above satellite

Ground track
Ground track

The orbit data is extracted from the following two-line orbital elements,

1 25342U 98032A   14263.46953416  .00000116  00000-0  34410-4 0  9671
2 25342 086.3922 282.4790 0002420 103.5393 009.0593 14.34218737855668
Epoch (UTC): 20 September 2014 11:16:07
Eccentricity: 0.0002420
inclination: 86.3922°
perigee height: 776 km
apogee height: 779 km
right ascension of ascending node: 282.4790°
argument of perigee: 103.5393°
revolutions per day: 14.34218737
mean anomaly at epoch: 9.0593°
orbit number at epoch: 85566

The dashed part of the orbit path shows where the satellite is in the earth's shadow,  

DLR